User: anonymous   Login
Location: NJAA Observatory
(40.6819°N, 74.8979°W)
Time: 15:09:51
(UTC-04:00)
Language:

Cosmos 1939 Rocket - Orbit

View from above orbital plane
View from above orbital plane
View from above satellite
View from above satellite

Ground track
Ground track

The orbit data is extracted from the following two-line orbital elements,

1 19046U 88032B   16177.93792973 +.00000262 +00000-0 +24258-4 0  9997
2 19046 097.5840 228.0276 0041207 105.5772 255.0007 15.01953667518874
Epoch (UTC): 25 June 2016 22:30:37
Eccentricity: 0.0041207
inclination: 97.5840°
perigee height: 532 km
apogee height: 589 km
right ascension of ascending node: 228.0276°
argument of perigee: 105.5772°
revolutions per day: 15.01953667
mean anomaly at epoch: 255.0007°
orbit number at epoch: 51887

The dashed part of the orbit path shows where the satellite is in the earth's shadow,  

DLR